Location: ??
(35.5090°N, 139.6783°E)
Time: 01:59:19
(UTC+00:00)

Meteor 1-11 - Pass Details

Date: 08 November 2025
Orbit: 830 x 894 km, 81.2° (Epoch: 09 December)

Event Time Altitude Azimuth Distance (km) Brightness Sun altitude
Rises 08:16:38 0° 351° (N) 3,479 7.3 -7.9°
Reaches altitude 10° 08:19:06 10° 352° (N) 2,528 6.6 -8.4°
Maximum altitude 08:24:52 88° 81° (E) 867 4.3 -9.6°
Drops below altitude 10° 08:30:29 10° 172° (S) 2,468 6.7 -10.7°
Sets 08:32:52 0° 173° (S) 3,391 7.4 -11.1°
